TEMPEST-D

Last updated on June 23, 2021, 12:02 a.m. UTC

1 43547U 98067NV  21172.16341817  .12719577  12534-4  48743-3 0  9994
2 43547  51.6127 217.4511 0003370 292.8028  67.2644 16.44063265167608

Satellite is not in orbit.